Estación de La capilla

Ultimos registro cada 15 minutos 52
Estación Fecha / Hora Temperatura Humedad Lluvia Velocidad Dirección Radiación Presion
52 La capilla 09-05-2026 12:45 13,5 49 0 1,8 360 197 1096,8
51 La capilla 09-05-2026 12:30 13 54 0 4,9 360 441 1097,3
50 La capilla 09-05-2026 12:15 12,4 53 0 4,5 360 555 1097,3
49 La capilla 09-05-2026 12:00 12,3 55 0 3,6 360 570 1097,7
48 La capilla 09-05-2026 11:45 11,9 55 0 2,2 360 563 1097,9
47 La capilla 09-05-2026 11:30 11,6 56 0 4,5 360 548 1097,6
46 La capilla 09-05-2026 11:15 11,6 56 0 4,5 360 529 1097,8
45 La capilla 09-05-2026 11:00 11,5 56 0 4,9 360 512 1098
44 La capilla 09-05-2026 10:45 11 57 0 2,7 360 483 1098,2
43 La capilla 09-05-2026 10:30 10,6 57 0 3,6 360 374 1098,3
42 La capilla 09-05-2026 10:15 10,3 57 0 6,3 360 197 1098,5
41 La capilla 09-05-2026 10:00 10,1 60 0 2,2 360 33 1098,7
40 La capilla 09-05-2026 09:45 9,8 60 0 6,7 360 352 1098,7
39 La capilla 09-05-2026 09:30 9,6 60 0 5,8 360 318 1098,7
38 La capilla 09-05-2026 09:15 9,2 61 0 4 360 278 1098,7
37 La capilla 09-05-2026 09:00 8,6 63 0 4 360 225 1098,6
36 La capilla 09-05-2026 08:45 8,2 64 0 4,5 360 49 1098,7
35 La capilla 09-05-2026 08:30 7,7 64 0 2,2 360 144 1098,5
34 La capilla 09-05-2026 08:15 7,4 65 0 4 360 16 1098,4
33 La capilla 09-05-2026 08:00 7,3 65 0 2,7 360 12 1098,4
32 La capilla 09-05-2026 07:45 7,1 66 0 1,8 360 9 1098,2
31 La capilla 09-05-2026 07:30 6,9 67 0 2,2 360 0 1098,4
30 La capilla 09-05-2026 07:15 6,7 69 0 2,7 360 0 1098,3
29 La capilla 09-05-2026 07:00 6,7 69 0 1,3 360 0 1098,2
28 La capilla 09-05-2026 06:45 6,6 70 0 2,2 360 0 1098,2
27 La capilla 09-05-2026 06:30 6,7 69 0 3,6 360 0 1098,1
26 La capilla 09-05-2026 06:15 6,8 69 0 3,6 360 0 1098,3
25 La capilla 09-05-2026 06:00 6,8 70 0 2,2 360 0 1098,5
24 La capilla 09-05-2026 05:45 6,8 70 0 2,7 360 0 1098,6
23 La capilla 09-05-2026 05:30 7,1 70 0 4,5 360 0 1098,6
22 La capilla 09-05-2026 05:15 6,9 71 0 1,8 360 0 1098,5
21 La capilla 09-05-2026 05:00 6,9 71 0 4,5 360 0 1098,5
20 La capilla 09-05-2026 04:45 7,1 71 0 2,2 360 0 1098,7
19 La capilla 09-05-2026 04:30 7,2 71 0 2,2 360 0 1098,6
18 La capilla 09-05-2026 04:15 7,2 71 0 4 360 0 1098,6
17 La capilla 09-05-2026 04:00 7,2 71 0 1,8 360 0 1098,7
16 La capilla 09-05-2026 03:45 7,3 72 0 2,2 360 0 1098,7
15 La capilla 09-05-2026 03:30 7,5 71 0 1,8 360 0 1098,7
14 La capilla 09-05-2026 03:15 7,3 72 0 4 360 0 1098,8
13 La capilla 09-05-2026 03:00 7,3 74 0 3,6 360 0 1099,1
12 La capilla 09-05-2026 02:45 7,6 73 0 1,8 360 0 1099,2
11 La capilla 09-05-2026 02:30 7,7 73 0 2,7 360 0 1099,4
10 La capilla 09-05-2026 02:15 7,8 74 0 1,8 360 0 1099,3
9 La capilla 09-05-2026 02:00 7,9 75 0 5,4 360 0 1099,4
8 La capilla 09-05-2026 01:45 7,9 75 0 2,2 360 0 1099,5
7 La capilla 09-05-2026 01:30 7,8 77 0 2,2 360 0 1099,6
6 La capilla 09-05-2026 01:15 7,9 78 0 2,7 360 0 1099,6
5 La capilla 09-05-2026 01:00 8,1 78 0 4 360 0 1099,6
4 La capilla 09-05-2026 00:45 8,1 79 0 1,8 360 0 1099,4
3 La capilla 09-05-2026 00:30 8,2 81 0 1,8 360 0 1099,1
2 La capilla 09-05-2026 00:15 8,3 81 0 1,8 360 0 1099
1 La capilla 09-05-2026 00:00 8,4 81 0 1,8 360 0 1099,1